www.pogodaiklimat.ru

АРХИВ ПОГОДЫ в Владивостоке

Время (UTC), дата Ветер
(напр.,м/с)
 
Видим.   Явления Облачность Т
(С)
Тd
(С)
f
(%)
Тe
(С)
Тes
(С)
Комфортность P
(гПа)
Po
(гПа)
Тmin
(С)
Tmax
(С)
R
(мм)
S
(см)
09 10.01 З 9-13
{13}
50 км ясно -12.5 -24.8 35 -23 -23 прохладно 1018.2 993.4 -10.8
12 10.01 З 7-11
{14}
50 км ясно -14.1 -26.3 35 -24 -24 по сезону 1020.1 995.1
15 10.01 З 7
{11}
50 км ясно -14.6 -26.7 35 -25 -25 прохладно 1020.0 994.9
18 10.01 ЮЗ 2
{12}
50 км ясно -14.9 -25.5 40 -20 -20 по сезону 1019.5 994.5
21 10.01 СЗ 4 50 км ясно -16.5 -22.5 60 -25 -25 по сезону 1018.8 993.6 -16.7 2
00 11.01 З 2
{10}
50 км ясно -16.3 -22.7 58 -22 -21 по сезону 1020.6 995.4
03 11.01 З 3 50 км 1/1 300 м
[Sc]
-13.6 -24.0 41 -20 -17 по сезону 1018.1 993.3
06 11.01 СЗ 3 50 км 6/4 300 м
[Sc As op]
-12.2 -24.4 35 -18 -18 по сезону 1015.7 991.1
09 11.01 СЗ 9-13
{14}
50 км 3/3 300 м
[Sc]
-13.2 -24.0 40 -24 -24 прохладно 1017.0 992.2 -11.9
12 11.01 З 8-12
{16}
50 км ясно -14.8 -24.1 45 -26 -26 прохладно 1018.4 993.4
15 11.01 З 5
{12}
50 км ясно -16.2 -25.4 45 -25 -25 прохладно 1017.8 992.7
18 11.01 З 6 50 км ясно -16.6 -25.9 44 -27 -27 прохладно 1016.3 991.2
21 11.01 СЗ 6
{11}
50 км ясно -17.1 -25.0 50 -27 -27 прохладно 1013.7 988.6 -17.4 2
00 12.01 СЗ 3 50 км ясно -17.1 -24.0 55 -24 -23 по сезону 1012.7 987.7 -17.5
03 12.01 З 4 50 км ясно -14.3 -25.0 40 -22 -19 по сезону 1009.4 984.7
06 12.01 СЗ 3 50 км ясно -12.2 -24.4 35 -18 -17 по сезону 1007.0 982.5
09 12.01 СЗ 13-18
{19}
50 км ясно -13.0 -25.6 34 -26 -26 холодно 1006.7 982.2 -12.1
12 12.01 СЗ 11-17
{18}
50 км ясно -15.4 -26.2 39 -28 -28 холодно 1008.3 983.5
15 12.01 СЗ 7
{18}
50 км ясно -16.9 -25.7 46 -28 -28 холодно 1010.0 985.0
18 12.01 СЗ 5
{12}
50 км ясно -17.8 -26.9 45 -27 -27 прохладно 1010.9 985.8
21 12.01 СЗ 3 50 км 3/0
[Ci fib]
-17.8 -26.3 47 -25 -25 по сезону 1010.5 985.4 -17.9 1
00 13.01 СЗ 3 50 км 10/0
[Ac trans Ci fib]
-16.7 -24.7 50 -24 -23 по сезону 1010.9 985.9
03 13.01 З 4 50 км 10/0
[Ac und]
-14.8 -24.1 45 -23 -22 по сезону 1009.7 984.9
06 13.01 СЗ 4 50 км 10/0
[Ac und]
-13.4 -21.6 50 -21 -21 по сезону 1009.9 985.2
09 13.01 -13
{14}
20 км {снег} н/о -14.4 -18.7 70 -25 -25 прохладно 1012.3 987.5 -13.2
12 13.01 СЗ 7-12
{14}
20 км {снег} ясно -15.5 -21.5 60 -26 -26 прохладно 1014.3 989.3
15 13.01 СЗ 7-11
{16}
20 км {снег} ясно -17.6 -19.5 85 -29 -29 холодно 1015.1 989.9
18 13.01 СЗ 5
{12}
20 км {снег} ясно -19.1 -22.4 75 -29 -29 холодно 1016.2 990.8
21 13.01 СЗ 6-11
{11}
20 км ясно -21.0 -23.9 77 -32 -32 опасность
обморожения
1015.9 990.3 -21.0 1
00 14.01 СЗ 8-13
{13}
50 км ясно -20.5 -23.8 75 -33 -33 опасность
обморожения
1015.4 990.0 -21.3
03 14.01 СЗ 10-16
{19}
50 км ясно -15.0 -22.0 55 -27 -27 холодно 1013.9 989.0
06 14.01 СЗ 9-17
{19}
50 км ясно -11.1 -19.5 50 -21 -21 по сезону 1012.4 987.9
09 14.01 СЗ 11-17
{19}
50 км ясно -10.5 -16.8 60 -22 -22 по сезону 1013.9 989.4 -10.2
12 14.01 СЗ 14-19
{20}
50 км ясно -10.4 -16.7 60 -23 -23 по сезону 1015.2 990.7
15 14.01 СЗ 11-17
{19}
50 км ясно -11.0 -16.3 65 -22 -22 по сезону 1016.7 992.1
18 14.01 СЗ 9-13
{17}
50 км ясно -11.6 -15.1 75 -22 -22 по сезону 1019.0 994.3
21 14.01 СЗ 7-10
{14}
50 км ясно -11.5 -15.9 70 -21 -21 по сезону 1020.0 995.2 -11.7 1
00 15.01 СЗ 9-13
{14}
50 км 8/4 600 м
[Sc Ac As]
-11.5 -13.5 85 -22 -22 по сезону 1021.3 996.6
03 15.01 СЗ 11-16
{19}
50 км 8/8 600 м
[Sc]
-9.6 -13.9 71 -21 -21 по сезону 1020.4 995.8
06 15.01 СЗ 12-19
{20}
50 км 8/8 600 м
[Sc]
-8.4 -13.8 65 -19 -19 по сезону 1019.9 995.5
09 15.01 СЗ 10-16
{19}
50 км 4/4 600 м
[Sc]
-9.1 -13.1 73 -20 -20 по сезону 1021.7 997.2 -8.2
12 15.01 СЗ 8-12
{17}
50 км 6/6 600 м
[Sc]
-9.7 -14.2 70 -19 -19 по сезону 1022.5 997.9
15 15.01 СЗ 12-19
{20}
50 км 8/8 600 м
[Sc]
-8.8 -12.1 77 -20 -20 по сезону 1021.4 996.9
18 15.01 СЗ 10-16
{21}
50 км 10/0
[As op]
-8.7 -13.6 68 -19 -19 по сезону 1023.8 999.2
21 15.01 СЗ 12-19
{22}
50 км 10/0
[As op]
-8.3 -12.9 69 -19 -19 по сезону 1024.5 1000.0 -10.2 1
00 16.01 СЗ 11-16
{20}
50 км 10/10 600 м
[Sc]
-7.4 -11.6 72 -18 -18 по сезону 1026.9 1002.4
03 16.01 СЗ 10-15
{17}
50 км 8/8 600 м
[Sc]
-5.9 -10.7 69 -16 -16 по сезону 1027.2 1002.9
06 16.01 СЗ 10-16
{18}
50 км 8/8 600 м
[Sc]
-4.8 -9.6 69 -14 -14 по сезону 1026.9 1002.6
09 16.01 С 8-13
{16}
50 км 8/8 600 м
[Sc]
-5.4 -9.5 73 -14 -14 по сезону 1028.7 1004.3 -4.8
12 16.01 З 3
{13}
50 км 4/4 600 м
[Sc]
-7.4 -9.5 85 -13 -13 тепло 1030.0 1005.4
15 16.01 СЗ 4 50 км ясно -8.4 -10.2 87 -15 -15 по сезону 1030.1 1005.4
18 16.01 СЗ 3 50 км ясно -9.1 -10.9 87 -15 -15 по сезону 1030.4 1005.7
21 16.01 СЗ 2 50 км ясно -9.3 -11.9 81 -14 -14 тепло 1030.0 1005.2 -9.4 1
00 17.01 СЗ 4 50 км ясно -10.0 -11.2 91 -17 -16 по сезону 1031.0 1006.2 -11.4
03 17.01 СЗ 4 50 км ясно -6.1 -11.0 68 -12 -9 тепло 1030.0 1005.6
06 17.01 СЗ 3 50 км ясно -3.2 -11.5 53 -8 -6 тепло 1028.5 1004.4

 

Местоположение метеостанции Владивосток (Приморский край, Россия): широта 43.12 долгота 131.90 высота над уровнем моря 188 м.

В архиве по умолчанию представлена погода в Владивостоке за последнюю неделю. Архивные данные за месяц целиком и за предыдущие месяцы, начиная с января 2011 года, Вы можете получить, выбрав интересующий диапазон дат из раскрывающегося списка и нажав кнопку "Ввод!".

Внимание! Время в таблицах - всемирное. Для получения местного времени необходимо прибавить поправку, которая в Владивостоке равна 10 ч.

Ветер - указаны скорость ветра в м/с - средняя за 10 мин, порывы в срок и между сроками (в фигурных скобках) и направление, откуда дует ветер: С - северный, СВ - северо-восточный, В - восточный, ЮВ - юго-восточный, Ю - южный, ЮЗ - юго-западный, З - западный, СЗ - северо-западный.
Видимость - горизонтальная дальность видимости в метрах или километрах. При видимости от 1 до 10 км при отсутствии осадков обычно наблюдается дымка, при ухудшении видимости до 1 км и менее - туман. В сухую погоду видимость может ухудшаться дымом, пылью или мглою.
Явления - указаны атмосферные явления, наблюдавшиеся в срок или в последний час перед сроком; фигурными скобками обозначены явления, наблюдавшиеся между сроками (за 1-3 часа до срока); квадратными скобками обозначены град или гололедные отложения с указанием их диаметра в мм.
Облачность - указаны через наклонную черту общая и нижняя облачность в баллах и высота нижней границы облаков в метрах; квадратными скобками обозначены формы облаков: Ci - перистые, Cs - перисто-слоистые, Cc - перисто-кучевые, Ac - высококучевые, As - высокослоистые, Sc - слоисто-кучевые, Ns - слоисто-дождевые, Cu - кучевые, Cb - кучево-дождевые. Подробнее классификацию облаков см. в Атласе облаков (PDF).
T - Температура воздуха - температура, измеренная на высоте 2 м над землей.
Td - Температура точки росы - температура, при понижении до которой содержащийся в воздухе водяной пар достигнет насыщения.
f - Относительная влажность воздуха - влажноcть воздуха, измеренная на высоте 2 м над землей.
Te - Эффективная температура - температура, которую ощущает одетый по сезону человек в тени. Характеристика душности погоды. При расчете учитывается влияние влажности воздуха и скорости ветра на теплоощущения человека.
Tes - Эффективная температура на солнце - температура, которую ощущает человек, с поправкой на солнечный нагрев. Характеристика знойности погоды. Зависит от высоты солнца над горизонтом, облачности и скорости ветра. Ночью, в пасмурную погоду, а также при ветре 12 м/с и более поправка равна нулю.
P - Атмосферное давление - приведенное к уровню моря атмосферное давление.
Po - Атмосферное давление - измеренное на уровне метеостанции атмосферное давление.
Tmin - Минимальная температура - минимум температуры воздуха на высоте 2 м над землей.
Tmax - Максимальная температура - максимум температуры воздуха на высоте 2 м над землей.
R - Количество осадков - Количество выпавших осадков, мм. При наведении курсора мыши на число - период времени, за который выпало указанное количество осадков.
S - Снежный покров - Высота снежного покрова, см. При наведении курсора мыши на число - состояние снежного покрова и степень покрытия местности в баллах.